Regional Weather Roundup
Issued by NWS

Home | Current Version | Previous Version | Graphics & Text | Print | Product List | Glossary On
Versions: 1 2 3 4 5 6 7 8 9 10 11 12 13 14 15 16 17 18 19 20 21 22 23 24 25 26 27 28 29 30 31 32 33 34 35 36 37 38 39 40 41 42 43 44 45 46 47 48 49 50
000
ASUS43 KLSX 102307
RWRMO

WEATHER SUMMARY FOR MISSOURI
NATIONAL WEATHER SERVICE SPRINGFIELD MO
500 PM CST SAT DEC 10 2016

NOTE: "FAIR" INDICATES FEW OR NO CLOUDS BELOW 12,000 FEET WITH NO
       SIGNIFICANT WEATHER AND/OR OBSTRUCTIONS TO VISIBILITY.
       CURRENT SKY AND/OR WEATHER CONDITIONS ARE NOT AVAILABLE FOR
       CHILLICOTHE AND FARMINGTON.

MOZ001>031-035>038-043-044-053-054-110000-
...NORTHERN AND WESTERN MISSOURI...

CITY           SKY/WX    TMP DP  RH WIND       PRES   REMARKS
KANSAS CTY INT CLOUDY    35  22  58 SE13      30.11F WCI  26
KANSAS C DTWN  CLOUDY    38  20  48 SE9       30.13F
LEE`S SUMMIT   CLOUDY    36  18  48 SE12      30.14F WCI  28
ST JOSEPH      CLOUDY    34  20  56 SE9       30.11F WCI  27
CHILLICOTHE      N/A     32  17  54 SE9       30.19F WCI  24
KIRKSVILLE     CLOUDY    30  17  58 SE13      30.22F WCI  20

$$
MOZ066>068-077>081-088>096-101>105-110000-
...SOUTHWEST MISSOURI...

CITY           SKY/WX    TMP DP  RH WIND       PRES   REMARKS
SPRINGFIELD    CLOUDY    37  19  48 SE18      30.18F WCI  27
JOPLIN         CLOUDY    44  10  25 S15       30.16F
BRANSON        CLOUDY    37  18  44 SE9       30.25F

$$
MOZ032>034-039>042-045>050-055>058-069>072-110000-
...CENTRAL MISSOURI...

CITY           SKY/WX    TMP DP  RH WIND       PRES   REMARKS
COLUMBIA       CLOUDY    34  18  52 SE8       30.24F WCI  27
JEFFERSON CITY CLOUDY    36  17  46 SE14      30.27F WCI  27
ROLLA          CLOUDY    33  17  51 SE15      30.24F WCI  23
SEDALIA        CLOUDY    38  18  44 SE14      30.20F WCI  30
WHITEMAN AFB   CLOUDY    38  18  45 SE8       30.16F
WARRENSBURG    CLOUDY    36  19  51 E5        30.17F
OSAGE BEACH    CLOUDY    36  17  46 S12       30.25F WCI  28

$$
MOZ051-052-059>065-110000-
...EAST CENTRAL MISSOURI...

CITY           SKY/WX    TMP DP  RH WIND       PRES   REMARKS
ST LOUIS INTL  CLOUDY    34  18  52 SE12      30.34F WCI  25
SPIRIT OF STL  CLOUDY    34  18  52 SE8       30.34F WCI  27
ST CHARLES     CLOUDY    33  21  61 SE12      30.35F WCI  24

$$
MOZ072>076-082>087-097>100-106>115-110000-
...SOUTH CENTRAL AND SOUTHEAST MISSOURI...

CITY           SKY/WX    TMP DP  RH WIND       PRES   REMARKS
CAPE GIRARDEAU CLOUDY    36  21  54 S6        30.42S
FARMINGTON     CLOUDY    33  18  53 S10       30.35F WCI  25
POPLAR BLUFF   CLOUDY    35  23  61 SE6       30.41F
WEST PLAINS    CLOUDY    32  17  54 SE7       30.32F WCI  26

$$



USA.gov is the U.S. government's official web portal to all federal, state and local government web resources and services.